Location: Eenumerhoogte
(53.3420°N, 6.7843°E)
Time: 11:51:21
(UTC+00:00)

Cosmos 2322 Rocket - Pass Details

Date: 15 May 2026
Orbit: 831 x 850 km, 71.0° (Epoch: 6 June)

Event Time Altitude Azimuth Distance (km) Brightness Sun altitude
Rises 20:32:21 0° 328° (NNW) 3,406 7.5 -8.2°
Reaches altitude 10° 20:34:48 10° 329° (NNW) 2,471 6.2 -8.5°
Maximum altitude 20:40:30 84° 57° (ENE) 856 2.3 -9.0°
Enters shadow 20:45:50 12° 147° (SSE) 2,333 3.8 -9.5°
